This demonstration page uses our WeatherBlox Daily Observations layout. Learn more.

Left ArrowRight Arrow

53.62937, 11.41316

Hourly Observations for September 12, 2021

Temp ( °F °C ) Dew Point ( °F °C ) Humidity (%) Winds ( mph kmh ) Pressure ( in mb ) Visibility ( mi km ) Precip ( " mm )
7:50 am 07:50 Mostly Cloudy 63 17 61 16 94 94 SSW 7 11 29.97 1015 30 48 N/A
8:20 am 08:20 Mostly Cloudy 63 17 61 16 94 94 SSW 8 13 29.97 1015 30 48 N/A
8:50 am 08:50 Mostly Cloudy 63 17 61 16 94 94 SSW 7 11 29.97 1015 30 48 N/A
9:20 am 09:20 Mostly Cloudy 64 18 61 16 88 88 SSW 8 13 29.97 1015 30 48 N/A
9:50 am 09:50 Mostly Cloudy 64 18 61 16 88 88 SSW 9 15 29.97 1015 30 48 N/A
10:20 am 10:20 Mostly Cloudy 64 18 61 16 88 88 SW 9 15 29.97 1015 30 48 N/A
10:50 am 10:50 Mostly Cloudy 66 19 61 16 83 83 SW 8 13 29.97 1015 30 48 N/A
11:20 am 11:20 Mostly Cloudy with Light Showers 66 19 61 16 83 83 SSW 9 15 29.97 1015 30 48 N/A
11:50 am 11:50 Mostly Cloudy with Light Showers 64 18 61 16 88 88 SW 7 11 29.97 1015 30 48 N/A
12:20 pm 12:20 Mostly Cloudy with Showers Nearby 64 18 63 17 94 94 SW 6 9 29.97 1015 30 48 N/A
12:50 pm 12:50 Partly Cloudy with Showers Nearby 64 18 63 17 94 94 SSW 7 11 29.97 1015 30 48 N/A
1:20 pm 13:20 Partly Cloudy with Showers Nearby 66 19 63 17 88 88 SSW 7 11 29.97 1015 30 48 N/A
1:50 pm 13:50 Partly Cloudy 68 20 63 17 83 83 SW 7 11 29.97 1015 30 48 N/A
2:20 pm 14:20 Partly Cloudy 70 21 63 17 78 78 SW 10 17 29.97 1015 30 48 N/A
2:50 pm 14:50 Partly Cloudy 68 20 59 15 73 73 SW 10 17 29.97 1015 30 48 N/A
3:20 pm 15:20 Mostly Sunny 70 21 59 15 69 69 SW 9 15 29.97 1015 30 48 N/A
3:50 pm 15:50 Mostly Sunny 70 21 59 15 69 69 WSW 8 13 29.97 1015 30 48 N/A
4:20 pm 16:20 Partly Cloudy 68 20 59 15 73 73 WSW 8 13 29.97 1015 30 48 N/A
4:50 pm 16:50 Partly Cloudy 66 19 55 13 68 68 SW 8 13 29.97 1015 30 48 N/A
5:20 pm 17:20 Partly Cloudy 66 19 57 14 73 73 SW 7 11 29.97 1015 30 48 N/A
5:50 pm 17:50 Partly Cloudy 66 19 57 14 73 73 SW 7 11 29.94 1014 30 48 N/A
6:20 pm 18:20 Partly Cloudy 64 18 57 14 78 78 SW 8 13 29.97 1015 30 48 N/A
6:50 pm 18:50 Mostly Cloudy 64 18 57 14 78 78 SW 7 11 29.94 1014 30 48 N/A
7:20 pm 19:20 Mostly Cloudy 64 18 55 13 73 73 SW 8 13 29.97 1015 30 48 N/A
7:50 pm 19:50 Mostly Cloudy 64 18 55 13 73 73 SW 6 9 29.94 1014 30 48 N/A
8:20 pm 20:20 Partly Cloudy 63 17 57 14 83 83 SW 3 6 29.97 1015 30 48 N/A
8:50 pm 20:50 Partly Cloudy 63 17 57 14 83 83 WSW 3 6 29.97 1015 30 48 N/A
9:20 pm 21:20 Partly Cloudy 61 16 55 13 83 83 SW 5 7 29.97 1015 30 48 N/A
9:50 pm 21:50 Mostly Clear 61 16 55 13 83 83 SW 5 7 29.97 1015 7 11 N/A

Powered by AerisWeather